Time,TemperatureF,DewpointF,PressureIn,WindDirection,WindDirectionDegrees,WindSpeedMPH,WindSpeedGustMPH,Humidity,HourlyPrecipIn,Conditions,Clouds,dailyrainin,SoftwareType,DateUTC
2013-03-07 00:00:00,46.0,28.0,29.85,NNW,331,0.0,0.0,49,0.00,,SCT150,0.08,VWS V14.01,2013-03-07 08:00:00,
2013-03-07 00:05:00,46.0,28.0,29.85,NNW,331,0.0,0.0,49,0.00,,SCT200,0.00,VWS V14.01,2013-03-07 08:05:00,
2013-03-07 00:10:00,45.9,27.8,29.85,NNW,330,0.0,0.0,49,0.00,,SCT200,0.00,VWS V14.01,2013-03-07 08:10:00,
2013-03-07 00:15:00,45.9,27.8,29.85,NNW,331,0.0,0.0,49,0.00,,SCT200,0.00,VWS V14.01,2013-03-07 08:15:00,
2013-03-07 00:20:00,46.2,28.6,29.85,NNW,330,0.0,0.0,50,0.00,,SCT200,0.00,VWS V14.01,2013-03-07 08:20:00,
2013-03-07 00:25:00,46.2,28.6,29.85,NNW,330,0.0,0.0,50,0.00,,SCT200,0.00,VWS V14.01,2013-03-07 08:25:00,
2013-03-07 00:30:00,46.2,28.6,29.85,NNW,330,0.0,0.0,50,0.00,,SCT200,0.00,VWS V14.01,2013-03-07 08:30:00,
2013-03-07 00:35:00,46.6,29.0,29.85,NNW,330,0.0,0.0,50,0.00,,SCT200,0.00,VWS V14.01,2013-03-07 08:35:00,
2013-03-07 00:40:00,46.6,29.0,29.85,NNW,330,0.0,0.0,50,0.00,,SCT200,0.00,VWS V14.01,2013-03-07 08:40:00,
2013-03-07 00:45:00,46.6,29.0,29.85,NNW,330,0.0,0.0,50,0.00,,SCT200,0.00,VWS V14.01,2013-03-07 08:45:00,
2013-03-07 00:50:00,46.6,29.0,29.85,NNW,329,0.0,0.0,50,0.00,,SCT200,0.00,VWS V14.01,2013-03-07 08:50:00,
2013-03-07 00:55:00,46.6,29.0,29.85,NNW,331,0.0,0.0,50,0.00,,SCT200,0.00,VWS V14.01,2013-03-07 08:55:00,
2013-03-07 01:00:00,46.6,29.0,29.85,NNW,330,0.0,0.0,50,0.00,,SCT200,0.00,VWS V14.01,2013-03-07 09:00:00,
2013-03-07 01:05:00,46.8,29.1,29.85,NNW,330,0.0,0.0,50,0.00,,BKN200,0.00,VWS V14.01,2013-03-07 09:05:00,
2013-03-07 01:10:00,46.9,29.8,29.85,NNW,330,0.0,0.0,51,0.00,,BKN200,0.00,VWS V14.01,2013-03-07 09:10:00,
2013-03-07 01:15:00,46.9,29.8,29.85,NNW,331,0.0,0.0,51,0.00,,BKN200,0.00,VWS V14.01,2013-03-07 09:15:00,
2013-03-07 01:20:00,46.9,29.8,29.85,NNW,330,0.0,0.0,51,0.00,,BKN200,0.00,VWS V14.01,2013-03-07 09:20:00,
2013-03-07 01:25:00,46.8,29.6,29.85,NNW,330,0.0,0.0,51,0.00,,BKN200,0.00,VWS V14.01,2013-03-07 09:25:00,
2013-03-07 01:30:00,46.8,30.1,29.85,NNW,330,0.0,0.0,52,0.00,,BKN200,0.00,VWS V14.01,2013-03-07 09:30:00,
2013-03-07 01:35:00,46.6,29.9,29.85,NNW,330,0.0,0.0,52,0.00,,BKN200,0.00,VWS V14.01,2013-03-07 09:35:00,
2013-03-07 01:40:00,46.6,29.9,29.85,NNW,330,0.0,0.0,52,0.00,,BKN200,0.00,VWS V14.01,2013-03-07 09:40:00,
2013-03-07 01:45:00,46.6,29.9,29.83,NNW,330,0.0,0.0,52,0.00,,BKN200,0.00,VWS V14.01,2013-03-07 09:45:00,
2013-03-07 01:50:00,46.4,29.8,29.83,NNW,331,0.0,0.0,52,0.00,,BKN200,0.00,VWS V14.01,2013-03-07 09:50:00,
2013-03-07 01:55:00,46.4,29.8,29.83,NNW,330,0.0,0.0,52,0.00,,BKN200,0.00,VWS V14.01,2013-03-07 09:55:00,
2013-03-07 02:00:00,46.4,30.2,29.83,NNW,330,0.0,0.0,53,0.00,,BKN200,0.00,VWS V14.01,2013-03-07 10:00:00,
2013-03-07 02:05:00,46.4,30.2,29.83,NNW,330,0.0,0.0,53,0.00,,BKN200,0.00,VWS V14.01,2013-03-07 10:05:00,
2013-03-07 02:10:00,46.4,30.2,29.83,NNW,330,0.0,0.0,53,0.00,,BKN200,0.00,VWS V14.01,2013-03-07 10:10:00,
2013-03-07 02:15:00,46.4,30.2,29.83,NNW,330,0.0,0.0,53,0.00,,BKN200,0.00,VWS V14.01,2013-03-07 10:15:00,
2013-03-07 02:20:00,46.2,30.0,29.83,NNW,331,0.0,0.0,53,0.00,,BKN200,0.00,VWS V14.01,2013-03-07 10:20:00,
2013-03-07 02:25:00,46.0,29.9,29.83,NNW,331,0.0,0.0,53,0.00,,BKN200,0.00,VWS V14.01,2013-03-07 10:25:00,
2013-03-07 02:30:00,46.0,29.9,29.83,NNW,331,0.0,0.0,53,0.00,,BKN200,0.00,VWS V14.01,2013-03-07 10:30:00,
2013-03-07 02:35:00,46.2,30.5,29.83,NNE,29,0.0,0.0,54,0.00,,BKN200,0.00,VWS V14.01,2013-03-07 10:35:00,
2013-03-07 02:40:00,46.2,30.5,29.83,NNE,28,0.0,0.0,54,0.00,,BKN200,0.00,VWS V14.01,2013-03-07 10:40:00,
2013-03-07 02:45:00,46.4,30.7,29.83,NNE,29,0.0,0.0,54,0.00,,BKN200,0.00,VWS V14.01,2013-03-07 10:45:00,
2013-03-07 02:50:00,46.6,31.3,29.83,NNE,29,0.0,0.0,55,0.00,,BKN200,0.00,VWS V14.01,2013-03-07 10:50:00,
2013-03-07 02:55:00,46.8,31.5,29.83,NNE,28,0.0,0.0,55,0.00,,BKN200,0.00,VWS V14.01,2013-03-07 10:55:00,
2013-03-07 03:00:00,46.9,31.6,29.83,NNE,29,0.0,0.0,55,0.00,,BKN200,0.00,VWS V14.01,2013-03-07 11:00:00,
2013-03-07 03:05:00,46.9,32.1,29.83,NNE,29,0.0,0.0,56,0.00,,BKN200,0.00,VWS V14.01,2013-03-07 11:05:00,
2013-03-07 03:10:00,46.9,32.1,29.83,NNE,29,0.0,0.0,56,0.00,,BKN200,0.00,VWS V14.01,2013-03-07 11:10:00,
2013-03-07 03:15:00,46.9,32.1,29.83,NNE,28,0.0,0.0,56,0.00,,BKN200,0.00,VWS V14.01,2013-03-07 11:15:00,
2013-03-07 03:20:00,47.1,32.2,29.83,NNE,29,0.0,0.0,56,0.00,,BKN200,0.00,VWS V14.01,2013-03-07 11:20:00,
2013-03-07 03:25:00,47.1,32.2,29.83,NNE,29,0.0,0.0,56,0.00,,BKN200,0.00,VWS V14.01,2013-03-07 11:25:00,
2013-03-07 03:30:00,47.1,32.2,29.83,NNE,28,0.0,0.0,56,0.00,,BKN200,0.00,VWS V14.01,2013-03-07 11:30:00,
2013-03-07 03:35:00,46.9,32.1,29.83,NNE,29,0.0,0.0,56,0.00,,BKN200,0.00,VWS V14.01,2013-03-07 11:35:00,
2013-03-07 03:40:00,46.9,32.1,29.83,NNE,28,0.0,0.0,56,0.00,,BKN200,0.00,VWS V14.01,2013-03-07 11:40:00,
2013-03-07 03:45:00,46.9,32.1,29.83,NNE,29,0.0,0.0,56,0.00,,BKN200,0.00,VWS V14.01,2013-03-07 11:45:00,
2013-03-07 03:50:00,46.9,32.1,29.83,NNE,29,0.0,0.0,56,0.00,,BKN200,0.00,VWS V14.01,2013-03-07 11:50:00,
2013-03-07 03:56:00,46.8,31.9,29.83,NNE,28,0.0,0.0,56,0.00,,BKN200,0.00,VWS V14.01,2013-03-07 11:56:00,
2013-03-07 04:00:00,46.8,31.9,29.80,NNE,29,0.0,0.0,56,0.00,,BKN200,0.00,VWS V14.01,2013-03-07 12:00:00,
2013-03-07 04:05:00,46.8,31.9,29.80,NNE,28,0.0,0.0,56,0.00,,BKN200,0.00,VWS V14.01,2013-03-07 12:05:00,
2013-03-07 04:10:00,46.8,31.9,29.80,NNE,29,0.0,0.0,56,0.00,,BKN200,0.00,VWS V14.01,2013-03-07 12:10:00,
2013-03-07 04:15:00,46.6,31.7,29.80,NNE,28,0.0,0.0,56,0.00,,BKN200,0.00,VWS V14.01,2013-03-07 12:15:00,
2013-03-07 04:20:00,46.6,31.7,29.80,NNE,28,0.0,0.0,56,0.00,,BKN200,0.00,VWS V14.01,2013-03-07 12:20:00,
2013-03-07 04:25:00,46.6,31.7,29.80,NNE,29,0.0,0.0,56,0.00,,BKN200,0.00,VWS V14.01,2013-03-07 12:25:00,
2013-03-07 04:31:00,46.6,31.7,29.80,NNE,29,0.0,0.0,56,0.00,,BKN200,0.00,VWS V14.01,2013-03-07 12:31:00,
2013-03-07 04:36:00,46.6,31.7,29.80,NNE,28,0.0,0.0,56,0.00,,BKN200,0.00,VWS V14.01,2013-03-07 12:36:00,
2013-03-07 04:41:00,46.6,31.7,29.80,NNE,28,0.0,0.0,56,0.00,,BKN200,0.00,VWS V14.01,2013-03-07 12:41:00,
2013-03-07 04:46:00,46.6,31.7,29.83,NNE,28,0.0,0.0,56,0.00,,BKN200,0.00,VWS V14.01,2013-03-07 12:46:00,
2013-03-07 04:51:00,46.6,31.7,29.83,NNE,29,0.0,0.0,56,0.00,,BKN200,0.00,VWS V14.01,2013-03-07 12:51:00,
2013-03-07 04:56:00,46.6,31.7,29.83,NNE,29,0.0,0.0,56,0.00,,BKN200,0.00,VWS V14.01,2013-03-07 12:56:00,
2013-03-07 05:01:00,46.6,31.7,29.80,NNE,28,0.0,0.0,56,0.00,,BKN200,0.00,VWS V14.01,2013-03-07 13:01:00,
2013-03-07 05:06:00,46.4,31.6,29.80,NNE,29,0.0,0.0,56,0.00,,BKN200,0.00,VWS V14.01,2013-03-07 13:06:00,
2013-03-07 05:11:00,46.4,31.6,29.80,NNE,28,0.0,0.0,56,0.00,,BKN200,0.00,VWS V14.01,2013-03-07 13:11:00,
2013-03-07 05:16:00,46.4,31.6,29.80,NNE,29,0.0,0.0,56,0.00,,BKN200,0.00,VWS V14.01,2013-03-07 13:16:00,
2013-03-07 05:21:00,46.6,32.2,29.80,NNE,28,0.0,0.0,57,0.00,,BKN200,0.00,VWS V14.01,2013-03-07 13:21:00,
2013-03-07 05:26:00,46.6,32.2,29.80,NNE,29,0.0,0.0,57,0.00,,BKN200,0.00,VWS V14.01,2013-03-07 13:26:00,
2013-03-07 05:31:00,46.8,32.3,29.80,NNE,29,0.0,0.0,57,0.00,,BKN200,0.00,VWS V14.01,2013-03-07 13:31:00,
2013-03-07 05:36:00,46.8,32.3,29.80,NNE,29,0.0,0.0,57,0.00,,BKN200,0.00,VWS V14.01,2013-03-07 13:36:00,
2013-03-07 05:41:00,46.8,32.3,29.80,NNE,28,0.0,0.0,57,0.00,,BKN200,0.00,VWS V14.01,2013-03-07 13:41:00,
2013-03-07 05:46:00,46.9,32.5,29.80,NNE,29,0.0,0.0,57,0.00,,BKN200,0.00,VWS V14.01,2013-03-07 13:46:00,
2013-03-07 05:51:00,46.9,32.5,29.80,NNE,29,0.0,0.0,57,0.00,,BKN200,0.00,VWS V14.01,2013-03-07 13:51:00,
2013-03-07 05:56:00,46.9,32.5,29.80,NNE,29,0.0,0.0,57,0.00,,BKN200,0.00,VWS V14.01,2013-03-07 13:56:00,
2013-03-07 06:01:00,46.9,32.5,29.80,NNE,29,0.0,0.0,57,0.00,,BKN200,0.00,VWS V14.01,2013-03-07 14:01:00,
2013-03-07 06:06:00,46.9,32.5,29.80,NNE,29,0.0,0.0,57,0.00,,BKN200,0.00,VWS V14.01,2013-03-07 14:06:00,
2013-03-07 06:11:00,46.9,32.5,29.80,WNW,286,0.0,0.0,57,0.00,,BKN200,0.00,VWS V14.01,2013-03-07 14:11:00,
2013-03-07 06:16:00,46.9,32.5,29.80,WNW,286,0.0,0.0,57,0.00,,BKN200,0.00,VWS V14.01,2013-03-07 14:16:00,
2013-03-07 06:21:00,46.9,32.5,29.80,WNW,286,0.0,0.0,57,0.00,,BKN200,0.00,VWS V14.01,2013-03-07 14:21:00,
2013-03-07 06:26:00,46.9,32.5,29.80,WNW,286,0.0,0.0,57,0.00,,BKN200,0.00,VWS V14.01,2013-03-07 14:26:00,
2013-03-07 06:31:00,46.9,32.5,29.80,WNW,286,0.0,0.0,57,0.00,,BKN200,0.00,VWS V14.01,2013-03-07 14:31:00,
2013-03-07 06:36:00,46.8,32.3,29.80,WNW,286,0.0,0.0,57,0.00,,BKN200,0.00,VWS V14.01,2013-03-07 14:36:00,
2013-03-07 06:41:00,46.8,32.3,29.80,WNW,286,0.0,0.0,57,0.00,,BKN200,0.00,VWS V14.01,2013-03-07 14:41:00,
2013-03-07 06:46:00,46.8,32.3,29.80,WNW,286,0.0,0.0,57,0.00,,BKN200,0.00,VWS V14.01,2013-03-07 14:46:00,
2013-03-07 06:51:00,46.8,32.3,29.80,WNW,286,0.0,0.0,57,0.00,,BKN200,0.00,VWS V14.01,2013-03-07 14:51:00,
2013-03-07 06:56:00,46.8,32.3,29.80,WNW,286,0.0,0.0,57,0.00,,BKN200,0.00,VWS V14.01,2013-03-07 14:56:00,
2013-03-07 07:01:00,46.9,32.5,29.80,WNW,286,0.0,0.0,57,0.00,,BKN160,0.00,VWS V14.01,2013-03-07 15:01:00,
2013-03-07 07:06:00,46.9,32.5,29.80,WNW,286,0.0,0.0,57,0.00,,BKN160,0.00,VWS V14.01,2013-03-07 15:06:00,
2013-03-07 07:11:00,46.9,32.5,29.80,WNW,286,0.0,0.0,57,0.00,,BKN160,0.00,VWS V14.01,2013-03-07 15:11:00,
2013-03-07 07:16:00,46.9,32.5,29.80,WNW,286,0.0,0.0,57,0.00,,BKN160,0.00,VWS V14.01,2013-03-07 15:16:00,
2013-03-07 07:21:00,46.9,32.5,29.80,WNW,285,0.0,0.0,57,0.00,,BKN160,0.00,VWS V14.01,2013-03-07 15:21:00,
2013-03-07 07:26:00,46.9,32.5,29.80,WNW,286,0.0,0.0,57,0.00,,BKN160,0.00,VWS V14.01,2013-03-07 15:26:00,
2013-03-07 07:31:00,46.9,32.5,29.80,WNW,286,0.0,0.0,57,0.00,,BKN160,0.00,VWS V14.01,2013-03-07 15:31:00,
2013-03-07 07:36:00,46.9,33.0,29.80,WNW,286,0.0,0.0,58,0.00,,BKN160,0.00,VWS V14.01,2013-03-07 15:36:00,
2013-03-07 07:41:00,47.1,33.1,29.80,WNW,285,0.0,0.0,58,0.00,,BKN160,0.00,VWS V14.01,2013-03-07 15:41:00,
2013-03-07 07:46:00,47.1,33.1,29.80,WNW,285,0.0,0.0,58,0.00,,BKN160,0.00,VWS V14.01,2013-03-07 15:46:00,
2013-03-07 07:51:00,47.3,33.3,29.80,WNW,286,0.0,0.0,58,0.00,,BKN160,0.00,VWS V14.01,2013-03-07 15:51:00,
2013-03-07 07:56:00,47.3,33.3,29.80,WNW,286,0.0,0.0,58,0.00,,BKN160,0.00,VWS V14.01,2013-03-07 15:56:00,
2013-03-07 08:01:00,47.8,33.8,29.80,WNW,286,0.0,0.0,58,0.00,,BKN100,0.00,VWS V14.01,2013-03-07 16:01:00,
2013-03-07 08:06:00,48.0,34.4,29.80,WNW,286,0.0,0.0,59,0.00,,BKN100,0.00,VWS V14.01,2013-03-07 16:06:00,
2013-03-07 08:11:00,48.4,34.3,29.80,WNW,286,0.0,0.0,58,0.00,,BKN100,0.00,VWS V14.01,2013-03-07 16:11:00,
2013-03-07 08:16:00,48.4,34.3,29.80,WNW,286,0.0,0.0,58,0.00,,BKN100,0.00,VWS V14.01,2013-03-07 16:16:00,
2013-03-07 08:21:00,48.4,34.3,29.80,WNW,285,0.0,0.0,58,0.00,,BKN100,0.00,VWS V14.01,2013-03-07 16:21:00,
2013-03-07 08:26:00,48.9,34.8,29.80,West,273,0.0,0.0,58,0.00,,BKN100,0.00,VWS V14.01,2013-03-07 16:26:00,
2013-03-07 08:31:00,49.3,35.1,29.80,West,273,0.0,0.0,58,0.00,,BKN100,0.00,VWS V14.01,2013-03-07 16:31:00,
2013-03-07 08:36:00,49.3,35.1,29.80,West,272,0.0,0.0,58,0.00,,BKN100,0.00,VWS V14.01,2013-03-07 16:36:00,
2013-03-07 08:41:00,49.3,35.1,29.80,West,272,0.0,0.0,58,0.00,,BKN100,0.00,VWS V14.01,2013-03-07 16:41:00,
2013-03-07 08:46:00,49.3,35.1,29.80,West,272,0.0,0.0,58,0.00,,BKN100,0.00,VWS V14.01,2013-03-07 16:46:00,
2013-03-07 08:51:00,50.2,36.0,29.80,West,268,0.0,0.0,58,0.00,,BKN100,0.00,VWS V14.01,2013-03-07 16:51:00,
2013-03-07 08:56:00,50.4,36.2,29.80,South,187,0.0,0.0,58,0.00,,BKN100,0.00,VWS V14.01,2013-03-07 16:56:00,
2013-03-07 09:01:00,50.5,36.3,29.80,South,188,0.0,0.0,58,0.00,,OVC100,0.00,VWS V14.01,2013-03-07 17:01:00,
2013-03-07 09:06:00,50.5,36.3,29.80,South,188,0.0,0.0,58,0.00,,OVC100,0.00,VWS V14.01,2013-03-07 17:06:00,
2013-03-07 09:11:00,51.1,36.8,29.80,SSE,163,0.0,0.0,58,0.00,,OVC100,0.00,VWS V14.01,2013-03-07 17:11:00,
2013-03-07 09:16:00,51.1,36.8,29.80,South,175,0.0,0.0,58,0.00,,OVC100,0.00,VWS V14.01,2013-03-07 17:16:00,
2013-03-07 09:21:00,51.4,36.7,29.80,South,175,0.0,0.0,57,0.00,,OVC100,0.00,VWS V14.01,2013-03-07 17:21:00,
2013-03-07 09:26:00,51.4,36.3,29.80,South,179,0.0,0.0,56,0.00,,OVC100,0.00,VWS V14.01,2013-03-07 17:26:00,
2013-03-07 09:31:00,51.4,36.3,29.80,South,180,0.0,0.0,56,0.00,,OVC100,0.00,VWS V14.01,2013-03-07 17:31:00,
2013-03-07 09:36:00,51.6,36.0,29.80,South,188,0.0,0.0,55,0.00,,OVC100,0.00,VWS V14.01,2013-03-07 17:36:00,
2013-03-07 09:41:00,51.8,35.7,29.80,South,180,0.0,0.0,54,0.00,,OVC100,0.00,VWS V14.01,2013-03-07 17:41:00,
2013-03-07 09:46:00,52.0,35.4,29.80,SSE,168,0.0,0.0,53,0.00,,OVC100,0.00,VWS V14.01,2013-03-07 17:46:00,
2013-03-07 09:51:00,52.0,34.9,29.80,ENE,73,0.0,0.0,52,0.00,,OVC100,0.00,VWS V14.01,2013-03-07 17:51:00,
2013-03-07 09:56:00,52.3,34.8,29.80,South,186,0.0,0.0,51,0.00,,OVC100,0.00,VWS V14.01,2013-03-07 17:56:00,
2013-03-07 10:01:00,52.7,34.1,29.80,SSW,195,0.0,0.0,49,0.00,,BKN180,0.00,VWS V14.01,2013-03-07 18:01:00,
2013-03-07 10:06:00,52.7,34.1,29.80,SSE,167,0.0,0.0,49,0.00,,BKN180,0.00,VWS V14.01,2013-03-07 18:06:00,
2013-03-07 10:11:00,53.2,33.5,29.80,South,179,0.0,0.0,47,0.00,,BKN180,0.00,VWS V14.01,2013-03-07 18:11:00,
2013-03-07 10:16:00,54.0,31.4,29.80,SSE,158,0.0,0.0,42,0.00,,BKN180,0.00,VWS V14.01,2013-03-07 18:16:00,
2013-03-07 10:21:00,54.0,31.4,29.80,South,180,0.0,0.0,42,0.00,,BKN180,0.00,VWS V14.01,2013-03-07 18:21:00,
2013-03-07 10:26:00,53.6,28.6,29.80,SSW,193,0.0,0.0,38,0.00,,BKN180,0.00,VWS V14.01,2013-03-07 18:26:00,
2013-03-07 10:31:00,53.8,29.4,29.80,SE,140,0.0,0.0,39,0.00,,BKN180,0.00,VWS V14.01,2013-03-07 18:31:00,
2013-03-07 10:36:00,54.0,29.6,29.80,South,181,2.7,2.7,39,0.00,,BKN180,0.00,VWS V14.01,2013-03-07 18:36:00,
2013-03-07 10:41:00,54.0,29.6,29.80,South,175,0.0,0.0,39,0.00,,BKN180,0.00,VWS V14.01,2013-03-07 18:41:00,
2013-03-07 10:46:00,53.8,27.5,29.80,South,171,0.0,0.0,36,0.00,,BKN180,0.00,VWS V14.01,2013-03-07 18:46:00,
2013-03-07 10:51:00,54.0,28.3,29.80,South,180,0.0,0.0,37,0.00,,BKN180,0.00,VWS V14.01,2013-03-07 18:51:00,
2013-03-07 10:56:00,54.0,27.6,29.80,South,183,0.0,0.0,36,0.00,,BKN180,0.00,VWS V14.01,2013-03-07 18:56:00,
2013-03-07 11:01:00,54.0,27.6,29.80,South,170,0.0,0.0,36,0.00,,OVC100,0.00,VWS V14.01,2013-03-07 19:01:00,
2013-03-07 11:06:00,54.0,28.3,29.80,South,170,0.0,0.0,37,0.00,,OVC100,0.00,VWS V14.01,2013-03-07 19:06:00,
2013-03-07 11:11:00,54.0,28.3,29.80,South,169,0.0,0.0,37,0.00,,OVC100,0.00,VWS V14.01,2013-03-07 19:11:00,
2013-03-07 11:16:00,54.0,28.3,29.77,South,170,0.0,0.0,37,0.00,,OVC100,0.00,VWS V14.01,2013-03-07 19:16:00,
2013-03-07 11:21:00,54.3,28.0,29.77,South,170,0.0,0.0,36,0.00,,OVC100,0.00,VWS V14.01,2013-03-07 19:21:00,
2013-03-07 11:26:00,54.3,28.0,29.77,South,174,0.0,0.0,36,0.00,,OVC100,0.00,VWS V14.01,2013-03-07 19:26:00,
2013-03-07 11:31:00,54.5,28.1,29.77,South,174,0.0,0.0,36,0.00,,OVC100,0.00,VWS V14.01,2013-03-07 19:31:00,
2013-03-07 11:36:00,54.7,27.6,29.77,SSW,193,0.0,0.0,35,0.00,,OVC100,0.00,VWS V14.01,2013-03-07 19:36:00,
2013-03-07 11:41:00,54.9,26.3,29.77,South,179,0.0,0.0,33,0.00,,OVC100,0.00,VWS V14.01,2013-03-07 19:41:00,
2013-03-07 11:46:00,55.2,25.1,29.77,South,179,0.0,0.0,31,0.00,,OVC100,0.00,VWS V14.01,2013-03-07 19:46:00,
2013-03-07 11:51:00,55.2,25.1,29.77,West,277,0.0,0.0,31,0.00,,OVC100,0.00,VWS V14.01,2013-03-07 19:51:00,
2013-03-07 11:56:00,55.2,24.4,29.77,SSE,160,0.0,0.0,30,0.00,,OVC100,0.00,VWS V14.01,2013-03-07 19:56:00,
2013-03-07 12:02:00,55.2,24.4,29.77,WNW,297,0.0,0.0,30,0.00,,BKN095,0.00,VWS V14.01,2013-03-07 20:02:00,
2013-03-07 12:06:00,55.6,23.9,29.77,West,277,0.0,0.0,29,0.00,,BKN095,0.00,VWS V14.01,2013-03-07 20:06:00,
2013-03-07 12:11:00,56.1,23.5,29.77,West,277,0.0,0.0,28,0.00,,BKN095,0.00,VWS V14.01,2013-03-07 20:11:00,
2013-03-07 12:16:00,56.8,24.1,29.77,WNW,290,0.0,0.0,28,0.00,,BKN095,0.00,VWS V14.01,2013-03-07 20:16:00,
2013-03-07 12:21:00,57.2,22.6,29.77,South,189,0.0,0.0,26,0.00,,BKN095,0.00,VWS V14.01,2013-03-07 20:21:00,
2013-03-07 12:26:00,57.0,22.5,29.77,WSW,257,0.0,0.0,26,0.00,,BKN095,0.00,VWS V14.01,2013-03-07 20:26:00,
2013-03-07 12:31:00,57.4,22.8,29.77,NW,326,0.0,3.1,26,0.00,,BKN095,0.00,VWS V14.01,2013-03-07 20:31:00,
2013-03-07 12:36:00,56.7,22.2,29.77,SSW,213,0.0,0.0,26,0.00,,BKN095,0.00,VWS V14.01,2013-03-07 20:36:00,
2013-03-07 12:41:00,56.7,22.2,29.77,WSW,242,0.0,0.0,26,0.00,,BKN095,0.00,VWS V14.01,2013-03-07 20:41:00,
2013-03-07 12:46:00,56.3,21.9,29.77,South,187,0.0,0.0,26,0.00,,BKN095,0.00,VWS V14.01,2013-03-07 20:46:00,
2013-03-07 12:52:00,56.1,21.7,29.77,WNW,300,0.0,0.0,26,0.00,,BKN095,0.00,VWS V14.01,2013-03-07 20:52:00,
2013-03-07 12:57:00,56.1,22.6,29.77,ENE,72,0.0,0.0,27,0.00,,BKN095,0.00,VWS V14.01,2013-03-07 20:57:00,
2013-03-07 13:02:00,56.1,22.6,29.74,North,353,0.0,0.0,27,0.00,,BKN100,0.00,VWS V14.01,2013-03-07 21:02:00,
2013-03-07 13:07:00,56.3,22.8,29.74,North,350,0.0,0.0,27,0.00,,BKN100,0.00,VWS V14.01,2013-03-07 21:07:00,
2013-03-07 13:12:00,56.3,22.8,29.74,NW,315,0.0,0.0,27,0.00,,BKN100,0.00,VWS V14.01,2013-03-07 21:12:00,
2013-03-07 13:17:00,57.2,23.5,29.74,WSW,239,0.0,0.0,27,0.00,,BKN100,0.00,VWS V14.01,2013-03-07 21:17:00,
2013-03-07 13:22:00,57.6,23.0,29.74,WNW,288,0.0,0.0,26,0.00,,BKN100,0.00,VWS V14.01,2013-03-07 21:22:00,
2013-03-07 13:27:00,57.6,23.0,29.74,WNW,288,0.0,0.0,26,0.00,,BKN100,0.00,VWS V14.01,2013-03-07 21:27:00,
2013-03-07 13:32:00,57.6,23.0,29.74,NNE,12,0.0,0.0,26,0.00,,BKN100,0.00,VWS V14.01,2013-03-07 21:32:00,
2013-03-07 13:37:00,57.6,23.0,29.74,WNW,285,0.0,0.0,26,0.00,,BKN100,0.00,VWS V14.01,2013-03-07 21:37:00,
2013-03-07 13:42:00,57.2,22.6,29.74,ENE,60,0.0,0.0,26,0.00,,BKN100,0.00,VWS V14.01,2013-03-07 21:42:00,
2013-03-07 13:47:00,56.7,23.1,29.74,WNW,299,0.0,0.0,27,0.00,,BKN100,0.00,VWS V14.01,2013-03-07 21:47:00,
2013-03-07 13:52:00,56.7,23.1,29.74,NNW,333,0.0,0.0,27,0.00,,BKN100,0.00,VWS V14.01,2013-03-07 21:52:00,
2013-03-07 13:57:00,56.7,23.1,29.74,NW,307,0.0,0.0,27,0.00,,BKN100,0.00,VWS V14.01,2013-03-07 21:57:00,
2013-03-07 14:02:00,57.2,22.6,29.74,NNE,18,0.0,0.0,26,0.00,,OVC160,0.00,VWS V14.01,2013-03-07 22:02:00,
2013-03-07 14:07:00,57.2,22.6,29.74,NNW,338,0.0,0.0,26,0.00,,OVC160,0.00,VWS V14.01,2013-03-07 22:07:00,
2013-03-07 14:12:00,57.0,23.4,29.74,NNW,338,0.0,0.0,27,0.00,,OVC160,0.00,VWS V14.01,2013-03-07 22:12:00,
2013-03-07 14:17:00,56.8,23.2,29.74,WNW,301,0.0,0.0,27,0.00,,OVC160,0.00,VWS V14.01,2013-03-07 22:17:00,
2013-03-07 14:22:00,57.0,23.4,29.74,NW,319,0.0,0.0,27,0.00,,OVC160,0.00,VWS V14.01,2013-03-07 22:22:00,
2013-03-07 14:27:00,57.4,22.8,29.74,West,267,0.0,0.0,26,0.00,,OVC160,0.00,VWS V14.01,2013-03-07 22:27:00,
2013-03-07 14:32:00,57.2,22.6,29.71,NW,313,0.0,0.0,26,0.00,,OVC160,0.00,VWS V14.01,2013-03-07 22:32:00,
2013-03-07 14:37:00,56.7,23.1,29.71,NW,313,0.0,0.0,27,0.00,,OVC160,0.00,VWS V14.01,2013-03-07 22:37:00,
2013-03-07 14:42:00,56.1,22.6,29.71,NW,309,0.0,0.0,27,0.00,,OVC160,0.00,VWS V14.01,2013-03-07 22:42:00,
2013-03-07 14:47:00,56.1,22.6,29.71,NW,310,0.0,0.0,27,0.00,,OVC160,0.00,VWS V14.01,2013-03-07 22:47:00,
2013-03-07 14:52:00,55.6,22.1,29.71,NNW,331,0.0,0.0,27,0.00,,OVC160,0.00,VWS V14.01,2013-03-07 22:52:00,
2013-03-07 14:57:00,55.2,21.8,29.71,WNW,287,0.0,0.0,27,0.00,,OVC160,0.00,VWS V14.01,2013-03-07 22:57:00,
2013-03-07 15:02:00,55.2,21.8,29.71,WNW,293,0.0,0.0,27,0.00,,OVC095,0.00,VWS V14.01,2013-03-07 23:02:00,
2013-03-07 15:07:00,55.0,21.7,29.71,WNW,294,0.0,0.0,27,0.00,,OVC095,0.00,VWS V14.01,2013-03-07 23:07:00,
2013-03-07 15:12:00,55.0,21.7,29.71,WNW,297,0.0,0.0,27,0.00,,OVC095,0.00,VWS V14.01,2013-03-07 23:12:00,
2013-03-07 15:17:00,55.0,21.7,29.71,NW,315,0.0,0.0,27,0.00,,OVC095,0.00,VWS V14.01,2013-03-07 23:17:00,
2013-03-07 15:22:00,54.3,21.1,29.71,NW,309,0.0,0.0,27,0.00,,OVC095,0.00,VWS V14.01,2013-03-07 23:22:00,
2013-03-07 15:27:00,54.1,21.8,29.71,NW,307,0.0,0.0,28,0.00,,OVC095,0.00,VWS V14.01,2013-03-07 23:27:00,
2013-03-07 15:32:00,54.0,21.6,29.71,NW,315,0.0,0.0,28,0.00,,OVC095,0.00,VWS V14.01,2013-03-07 23:32:00,
2013-03-07 15:37:00,54.0,22.5,29.71,NW,309,0.0,0.0,29,0.00,,OVC095,0.00,VWS V14.01,2013-03-07 23:37:00,
2013-03-07 15:42:00,54.1,22.6,29.71,NNW,329,0.0,0.0,29,0.00,,OVC095,0.00,VWS V14.01,2013-03-07 23:42:00,
2013-03-07 15:47:00,54.1,22.6,29.71,NW,310,0.0,0.0,29,0.00,,OVC095,0.00,VWS V14.01,2013-03-07 23:47:00,
2013-03-07 15:52:00,54.1,22.6,29.71,WNW,293,0.0,0.0,29,0.00,,OVC095,0.00,VWS V14.01,2013-03-07 23:52:00,
2013-03-07 15:57:00,53.6,22.1,29.71,NNW,328,0.0,0.0,29,0.00,,OVC095,0.00,VWS V14.01,2013-03-07 23:57:00,
2013-03-07 16:02:00,53.6,22.9,29.71,NW,306,0.0,0.0,30,0.00,,OVC075,0.00,VWS V14.01,2013-03-08 00:02:00,
2013-03-07 16:07:00,53.8,23.1,29.71,WNW,301,0.0,0.0,30,0.00,,OVC075,0.00,VWS V14.01,2013-03-08 00:07:00,
2013-03-07 16:12:00,53.8,23.1,29.71,NW,318,0.0,0.0,30,0.00,,OVC075,0.00,VWS V14.01,2013-03-08 00:12:00,
2013-03-07 16:17:00,54.0,23.2,29.71,WNW,297,0.0,0.0,30,0.00,,OVC075,0.00,VWS V14.01,2013-03-08 00:17:00,
2013-03-07 16:22:00,54.1,23.4,29.71,NW,317,0.0,0.0,30,0.00,,OVC075,0.00,VWS V14.01,2013-03-08 00:22:00,
2013-03-07 16:27:00,54.0,23.2,29.71,NNW,327,0.0,0.0,30,0.00,,OVC075,0.00,VWS V14.01,2013-03-08 00:27:00,
2013-03-07 16:32:00,54.0,23.2,29.71,NW,307,0.0,0.0,30,0.00,,OVC075,0.00,VWS V14.01,2013-03-08 00:32:00,
2013-03-07 16:37:00,53.4,22.8,29.71,NW,322,0.0,0.0,30,0.00,,OVC075,0.00,VWS V14.01,2013-03-08 00:37:00,
2013-03-07 16:42:00,53.4,22.8,29.71,NW,310,0.0,0.0,30,0.00,,OVC075,0.00,VWS V14.01,2013-03-08 00:42:00,
2013-03-07 16:47:00,53.4,22.8,29.71,WNW,301,0.0,0.0,30,0.00,,OVC075,0.00,VWS V14.01,2013-03-08 00:47:00,
2013-03-07 16:52:00,52.9,23.1,29.71,WNW,301,0.0,0.0,31,0.00,,OVC075,0.00,VWS V14.01,2013-03-08 00:52:00,
2013-03-07 16:57:00,52.9,23.9,29.71,WNW,294,0.0,0.0,32,0.00,,OVC075,0.00,VWS V14.01,2013-03-08 00:57:00,
2013-03-07 17:02:00,52.7,24.4,29.71,WNW,298,0.0,0.0,33,0.00,,-RA,0.00,VWS V14.01,2013-03-08 01:02:00,
2013-03-07 17:07:00,52.7,24.4,29.71,NW,318,0.0,0.0,33,0.00,,-RA,0.00,VWS V14.01,2013-03-08 01:07:00,
2013-03-07 17:12:00,52.2,24.0,29.71,NW,314,0.0,0.0,33,0.00,,-RA,0.00,VWS V14.01,2013-03-08 01:12:00,
2013-03-07 17:17:00,51.8,23.6,29.71,NW,320,0.0,0.0,33,0.00,,-RA,0.00,VWS V14.01,2013-03-08 01:17:00,
2013-03-07 17:22:00,51.8,23.6,29.71,NW,324,0.0,0.0,33,0.00,,-RA,0.00,VWS V14.01,2013-03-08 01:22:00,
2013-03-07 17:27:00,51.3,25.2,29.71,SW,227,0.0,0.0,36,0.00,,-RA,0.00,VWS V14.01,2013-03-08 01:27:00,
2013-03-07 17:32:00,51.3,25.2,29.71,NW,312,0.0,0.0,36,0.00,,-RA,0.00,VWS V14.01,2013-03-08 01:32:00,
2013-03-07 17:37:00,50.7,24.8,29.71,NW,320,0.0,0.0,36,0.00,,-RA,0.00,VWS V14.01,2013-03-08 01:37:00,
2013-03-07 17:42:00,50.7,24.8,29.71,NW,319,0.0,0.0,36,0.00,,-RA,0.00,VWS V14.01,2013-03-08 01:42:00,
2013-03-07 17:47:00,50.2,24.9,29.71,WNW,287,0.0,0.0,37,0.00,,-RA,0.00,VWS V14.01,2013-03-08 01:47:00,
2013-03-07 17:52:00,50.0,24.8,29.71,NW,311,0.0,0.0,37,0.00,,-RA,0.00,VWS V14.01,2013-03-08 01:52:00,
2013-03-07 17:57:00,50.0,24.8,29.71,West,275,0.0,0.0,37,0.00,,-RA,0.00,VWS V14.01,2013-03-08 01:57:00,
2013-03-07 18:02:00,49.8,24.6,29.71,West,280,0.0,0.0,37,0.00,,OVC060,0.00,VWS V14.01,2013-03-08 02:02:00,
2013-03-07 18:07:00,49.8,24.6,29.71,WNW,294,0.0,0.0,37,0.00,,OVC060,0.00,VWS V14.01,2013-03-08 02:07:00,
2013-03-07 18:12:00,49.8,24.6,29.71,WNW,294,0.0,0.0,37,0.00,,OVC060,0.00,VWS V14.01,2013-03-08 02:12:00,
2013-03-07 18:17:00,49.8,24.6,29.71,WNW,302,0.0,0.0,37,0.00,,OVC060,0.00,VWS V14.01,2013-03-08 02:17:00,
2013-03-07 18:22:00,49.6,25.1,29.71,WNW,300,0.0,0.0,38,0.00,,OVC060,0.00,VWS V14.01,2013-03-08 02:22:00,
2013-03-07 18:27:00,49.6,25.1,29.71,WNW,300,0.0,0.0,38,0.00,,OVC060,0.00,VWS V14.01,2013-03-08 02:27:00,
2013-03-07 18:32:00,49.5,25.5,29.71,NW,313,0.0,0.0,39,0.00,,OVC060,0.00,VWS V14.01,2013-03-08 02:32:00,
2013-03-07 18:37:00,49.5,25.5,29.71,NW,322,0.0,0.0,39,0.00,,OVC060,0.00,VWS V14.01,2013-03-08 02:37:00,
2013-03-07 18:42:00,49.5,25.5,29.71,NW,321,0.0,0.0,39,0.00,,OVC060,0.00,VWS V14.01,2013-03-08 02:42:00,
2013-03-07 18:47:00,49.1,25.8,29.71,NW,310,0.0,0.0,40,0.00,,OVC060,0.00,VWS V14.01,2013-03-08 02:47:00,
2013-03-07 18:52:00,49.1,25.8,29.71,NW,310,0.0,0.0,40,0.00,,OVC060,0.00,VWS V14.01,2013-03-08 02:52:00,
2013-03-07 18:57:00,49.1,25.8,29.71,NNW,341,0.0,0.0,40,0.00,,OVC060,0.00,VWS V14.01,2013-03-08 02:57:00,
2013-03-07 19:02:00,49.1,25.8,29.71,NW,323,0.0,0.0,40,0.00,,OVC055,0.00,VWS V14.01,2013-03-08 03:02:00,
2013-03-07 19:07:00,49.1,25.8,29.71,NW,306,0.0,0.0,40,0.00,,OVC055,0.00,VWS V14.01,2013-03-08 03:07:00,
2013-03-07 19:12:00,48.9,26.3,29.71,NW,313,0.0,0.0,41,0.00,,OVC055,0.00,VWS V14.01,2013-03-08 03:12:00,
2013-03-07 19:17:00,49.1,26.4,29.71,NW,307,0.0,0.0,41,0.00,,OVC055,0.00,VWS V14.01,2013-03-08 03:17:00,
2013-03-07 19:22:00,48.9,26.3,29.71,NW,323,0.0,0.0,41,0.00,,OVC055,0.00,VWS V14.01,2013-03-08 03:22:00,
2013-03-07 19:27:00,48.9,26.3,29.71,NW,315,0.0,0.0,41,0.00,,OVC055,0.00,VWS V14.01,2013-03-08 03:27:00,
2013-03-07 19:32:00,49.1,26.4,29.71,NW,315,0.0,0.0,41,0.00,,OVC055,0.00,VWS V14.01,2013-03-08 03:32:00,
2013-03-07 19:37:00,49.1,26.4,29.71,NW,317,0.0,0.0,41,0.00,,OVC055,0.00,VWS V14.01,2013-03-08 03:37:00,
2013-03-07 19:42:00,49.1,26.4,29.71,NW,317,0.0,0.0,41,0.00,,OVC055,0.00,VWS V14.01,2013-03-08 03:42:00,
2013-03-07 19:47:00,49.1,26.4,29.71,NW,318,0.0,0.0,41,0.00,,OVC055,0.00,VWS V14.01,2013-03-08 03:47:00,
2013-03-07 19:52:00,49.1,26.4,29.71,NW,318,0.0,0.0,41,0.00,,OVC055,0.00,VWS V14.01,2013-03-08 03:52:00,
2013-03-07 19:57:00,49.1,27.0,29.71,NW,318,0.0,0.0,42,0.00,,OVC055,0.00,VWS V14.01,2013-03-08 03:57:00,
2013-03-07 20:02:00,49.1,27.0,29.71,NW,318,0.0,0.0,42,0.00,,OVC055,0.00,VWS V14.01,2013-03-08 04:02:00,
2013-03-07 20:07:00,49.1,27.0,29.71,NW,318,0.0,0.0,42,0.00,,-RA,0.00,VWS V14.01,2013-03-08 04:07:00,
2013-03-07 20:12:00,49.1,27.0,29.71,NW,317,0.0,0.0,42,0.00,,-RA,0.00,VWS V14.01,2013-03-08 04:12:00,
2013-03-07 20:17:00,49.1,27.0,29.71,NW,318,0.0,0.0,42,0.00,,-RA,0.00,VWS V14.01,2013-03-08 04:17:00,
2013-03-07 20:22:00,49.3,27.2,29.71,NW,318,0.0,0.0,42,0.00,,-RA,0.00,VWS V14.01,2013-03-08 04:22:00,
2013-03-07 20:27:00,49.3,27.2,29.71,WNW,298,0.0,0.0,42,0.00,,-RA,0.00,VWS V14.01,2013-03-08 04:27:00,
2013-03-07 20:32:00,49.3,27.2,29.71,NW,309,0.0,0.0,42,0.00,,-RA,0.00,VWS V14.01,2013-03-08 04:32:00,
2013-03-07 20:37:00,49.3,27.8,29.71,NNW,342,0.0,0.0,43,0.00,,-RA,0.00,VWS V14.01,2013-03-08 04:37:00,
2013-03-07 20:42:00,49.3,27.8,29.71,NW,317,0.0,0.0,43,0.00,,-RA,0.00,VWS V14.01,2013-03-08 04:42:00,
2013-03-07 20:47:00,49.1,27.6,29.71,NW,320,0.0,0.0,43,0.00,,-RA,0.00,VWS V14.01,2013-03-08 04:47:00,
2013-03-07 20:52:00,49.1,27.6,29.71,NNW,327,0.0,0.0,43,0.00,,-RA,0.00,VWS V14.01,2013-03-08 04:52:00,
2013-03-07 20:57:00,49.1,27.0,29.71,NW,326,0.0,0.0,42,0.00,,-RA,0.00,VWS V14.01,2013-03-08 04:57:00,
2013-03-07 21:00:00,49.1,27.0,29.71,NW,307,0.0,0.0,42,0.00,,-RA,0.00,VWS V14.01,2013-03-08 05:00:00,
2013-03-07 21:02:00,49.1,27.0,29.71,NNW,335,0.0,0.0,42,0.00,,-RA,0.00,VWS V14.01,2013-03-08 05:02:00,
2013-03-07 21:07:00,49.1,27.6,29.71,NNW,335,0.0,0.0,43,0.00,,-RA,0.00,VWS V14.01,2013-03-08 05:07:00,
2013-03-07 21:12:00,49.1,27.6,29.71,NW,320,0.0,0.0,43,0.00,,-RA,0.00,VWS V14.01,2013-03-08 05:12:00,
2013-03-07 21:17:00,49.3,27.8,29.71,NW,320,0.0,0.0,43,0.00,,-RA,0.00,VWS V14.01,2013-03-08 05:17:00,
2013-03-07 21:22:00,49.3,27.8,29.71,NW,321,0.0,0.0,43,0.00,,-RA,0.00,VWS V14.01,2013-03-08 05:22:00,
2013-03-07 21:27:00,49.3,27.8,29.71,NW,321,0.0,0.0,43,0.00,,-RA,0.00,VWS V14.01,2013-03-08 05:27:00,
2013-03-07 21:32:00,49.5,27.9,29.74,NW,321,0.0,0.0,43,0.00,,-RA,0.00,VWS V14.01,2013-03-08 05:32:00,
2013-03-07 21:37:00,49.5,27.9,29.74,NW,320,0.0,0.0,43,0.00,,-RA,0.00,VWS V14.01,2013-03-08 05:37:00,
2013-03-07 21:42:00,49.5,27.9,29.74,NW,320,0.0,0.0,43,0.00,,-RA,0.00,VWS V14.01,2013-03-08 05:42:00,
2013-03-07 21:47:00,49.5,27.9,29.74,NW,321,0.0,0.0,43,0.00,,-RA,0.00,VWS V14.01,2013-03-08 05:47:00,
2013-03-07 21:52:00,49.5,27.9,29.74,NW,321,0.0,0.0,43,0.00,,-RA,0.00,VWS V14.01,2013-03-08 05:52:00,
2013-03-07 21:57:00,49.3,28.3,29.74,NW,321,0.0,0.0,44,0.00,,-RA,0.00,VWS V14.01,2013-03-08 05:57:00,
2013-03-07 22:02:00,49.1,28.1,29.74,NW,320,0.0,0.0,44,0.00,,-RA,0.00,VWS V14.01,2013-03-08 06:02:00,
2013-03-07 22:07:00,49.1,28.1,29.74,NW,321,0.0,0.0,44,0.00,,-RA,0.00,VWS V14.01,2013-03-08 06:07:00,
2013-03-07 22:12:00,49.1,28.1,29.74,NW,320,0.0,0.0,44,0.00,,-RA,0.00,VWS V14.01,2013-03-08 06:12:00,
2013-03-07 22:16:00,48.9,28.5,29.74,NW,321,0.0,0.0,45,0.00,,-RA,0.00,VWS V14.01,2013-03-08 06:16:00,
2013-03-07 22:21:00,48.9,28.5,29.74,NW,321,0.0,0.0,45,0.00,,-RA,0.00,VWS V14.01,2013-03-08 06:21:00,
2013-03-07 22:26:00,48.9,28.5,29.74,NW,321,0.0,0.0,45,0.00,,-RA,0.00,VWS V14.01,2013-03-08 06:26:00,
2013-03-07 22:31:00,48.7,28.9,29.71,NW,321,0.0,0.0,46,0.00,,-RA,0.00,VWS V14.01,2013-03-08 06:31:00,
2013-03-07 22:36:00,48.7,28.9,29.71,NW,321,0.0,0.0,46,0.00,,-RA,0.00,VWS V14.01,2013-03-08 06:36:00,
2013-03-07 22:41:00,48.7,29.4,29.71,NW,318,0.0,0.0,47,0.00,,-RA,0.00,VWS V14.01,2013-03-08 06:41:00,
2013-03-07 22:46:00,48.7,29.4,29.71,NW,317,0.0,0.0,47,0.00,,-RA,0.00,VWS V14.01,2013-03-08 06:46:00,
2013-03-07 22:51:00,48.7,29.9,29.71,NW,318,0.0,0.0,48,0.00,,-RA,0.00,VWS V14.01,2013-03-08 06:51:00,
2013-03-07 22:56:00,48.7,29.9,29.71,NW,310,0.0,0.0,48,0.00,,-RA,0.00,VWS V14.01,2013-03-08 06:56:00,
2013-03-07 23:01:00,48.6,29.8,29.71,NW,310,0.0,0.0,48,0.00,,-RA,0.00,VWS V14.01,2013-03-08 07:01:00,
2013-03-07 23:06:00,48.6,30.3,29.71,NW,312,0.0,0.0,49,0.00,,-RA,0.00,VWS V14.01,2013-03-08 07:06:00,
2013-03-07 23:11:00,48.6,30.3,29.71,NW,312,0.0,0.0,49,0.00,,-RA,0.00,VWS V14.01,2013-03-08 07:11:00,
2013-03-07 23:16:00,48.6,30.3,29.71,NW,312,0.0,0.0,49,0.00,,-RA,0.00,VWS V14.01,2013-03-08 07:16:00,
2013-03-07 23:21:00,48.6,30.3,29.71,NW,312,0.0,0.0,49,0.00,,-RA,0.00,VWS V14.01,2013-03-08 07:21:00,
2013-03-07 23:26:00,48.6,30.3,29.71,NW,312,0.0,0.0,49,0.00,,-RA,0.00,VWS V14.01,2013-03-08 07:26:00,
2013-03-07 23:31:00,48.6,30.3,29.71,NW,312,0.0,0.0,49,0.00,,-RA,0.00,VWS V14.01,2013-03-08 07:31:00,
2013-03-07 23:36:00,48.6,30.3,29.71,NW,312,0.0,0.0,49,0.00,,-RA,0.00,VWS V14.01,2013-03-08 07:36:00,
2013-03-07 23:41:00,48.6,30.3,29.71,NW,312,0.0,0.0,49,0.00,,-RA,0.00,VWS V14.01,2013-03-08 07:41:00,
2013-03-07 23:46:00,48.6,30.3,29.71,NW,312,0.0,0.0,49,0.00,,-RA,0.00,VWS V14.01,2013-03-08 07:46:00,
2013-03-07 23:51:00,48.4,30.1,29.71,NW,312,0.0,0.0,49,0.00,,-RA,0.00,VWS V14.01,2013-03-08 07:51:00,
2013-03-07 23:56:00,48.4,30.1,29.71,NW,312,0.0,0.0,49,0.00,,-RA,0.00,VWS V14.01,2013-03-08 07:56:00,